Location: Castle Hill Houses
(40.8186°N, 73.8497°W)
Time: 21:54:44
(UTC+00:00)

STARLINK-1027 - Pass Details

Date: 26 January 2020
Orbit: 568 x 571 km, 53.0° (Epoch: 18 February)

Event Time Altitude Azimuth Distance (km) Brightness Sun altitude
Exits shadow 10:47:01 26° 312° (NW) 1,141 4.7 -16.0°
Maximum altitude 10:47:59 28° 336° (NNW) 1,071 4.8 -15.8°
Drops below altitude 10° 10:51:42 10° 36° (NE) 1,874 6.6 -15.1°
Sets 10:54:13 0° 48° (NE) 2,774 7.7 -14.7°
